默认 日期 大小 文件数 浏览量 最新下载 xml
bird bird磁力链接相关资源由用户搜索指令自动获取,结果来源于网络,本站不存储任何资料,亦不承担任何责任,请于24小时内删除,搜索到8345个磁力,显示前4000条数据,用时5ms。
    ... .flac": 43293382, "01.Julian Jeweil - Bird.flac": 46426902, "02.Julian Jeweil ...
创建时间: 2018-12-19 03:28:38 大小:221.26 MB 文件数量:7 热度:9 最近下载:2025-02-20 23:50:05
    {"British Library - Hwamei(Garrulax canorus).mp3": 4479236, "British Library - Kokako(Callaeas cinerea).mp3": 3965773, "British Library - Skylark(Alauda arvensis).mp3": 6167582, "British Library - Woodlark(Lullula arborea).mp3": 5158836, "British Library - ...
创建时间: 2018-12-19 03:37:58 大小:174.27 MB 文件数量:40 热度:10 最近下载:2025-03-26 11:02:00
    {"xtorrenty.org.mp4": 91004571, "ZAPRASZAMY - HARDSITE.PL.html": 552, "Odwiedz nas na xtorrenty.org.txt": 69, "Bird Box (2018) PL.SUBBED.NF.WEB-DL.XViD-MORS.avi": 733833800}
创建时间: 2018-12-19 04:00:45 大小:786.63 MB 文件数量:4 热度:7 最近下载:2022-04-23 05:59:27
    ... - 02 Esmerelda.mp3": 7957996, "T Bird and the Breaks - Learn About ... Tone Cadillac.mp3": 11184657, "T Bird and the Breaks - Learn About ... Love": {"cover.jpg": 178659, "T Bird and the Breaks - Spread the ... ": {"cover.jpg": 199273, "T Bird and the Breaks - Monkey in ...
创建时间: 2018-12-19 04:01:35 大小:234.34 MB 文件数量:34 热度:9 最近下载:2025-03-06 06:32:01
    {"cover.jpg": 56862, "02 - Man.flac": 21643782, "03 - The Races.flac": 20365202, "04 - So You Say.flac": 22683087, "01 - Polite Dance Song.flac": 27893589, "05 - How Deep Is Your Love.flac": 18430127, "Torrent downloaded from Demonoid.me.txt": 46}
创建时间: 2018-12-19 04:06:12 大小:105.93 MB 文件数量:7 热度:21 最近下载:2025-05-29 22:50:03
    {"www.YTS.AM.jpg": 58132, "Bird.Box.2018.720p.WEBRip.x264-[YTS.AM].mp4": 1100836711}
创建时间: 2018-12-19 04:09:57 大小:1.03 GB 文件数量:2 热度:9 最近下载:2025-05-29 18:15:01
    ... Parker.flac": 11562118, "Charlie Parker - Bird- The Complete Charlie Parker On ... 5).jpg": 26139, "Charlie Parker - Bird- The Complete Charlie Parker On ...
创建时间: 2018-12-19 04:14:45 大小:260.8 MB 文件数量:23 热度:7 最近下载:2025-10-16 09:59:02
    {"ICON - 04-A Far Cry.mp3": 10601920, "ICON - 07-Bad Times.mp3": 8470328, "ICON - 08-Double Life.mp3": 10113956, "ICON - 05-In Your Eyes.mp3": 9853779, "ICON - 11-Peace & Love.mp3": 3504978, "ICON - 09-Forever Young.mp3": 9459854, "ICON - 06-Holy Man's War ...
创建时间: 2018-12-19 04:16:24 大小:109.19 MB 文件数量:12 热度:10 最近下载:2025-08-06 00:09:03
    {"xtorrenty.org.mp4": 91004571, "ZAPRASZAMY - HARDSITE.PL.html": 552, "Odwiedz nas na xtorrenty.org.txt": 69, "Bird Box (2018) PL.SUBBED.1080p.NF.WEB-DL.XViD.AC3-MORS.avi": 4169600848}
创建时间: 2018-12-19 04:21:08 大小:3.97 GB 文件数量:4 热度:8 最近下载:2025-01-26 20:01:37
    {"Betrayal Society Lost, Volume Two (Unabridged).cue": 2144, "Betrayal Society Lost, Volume Two (Unabridged).jpg": 54896, "Betrayal Society Lost, Volume Two (Unabridged).nfo": 2469, "Betrayal Society Lost, Volume Two (Unabridged) - 01.mp3": 116213, " ...
创建时间: 2018-12-19 04:30:11 大小:90.89 MB 文件数量:39 热度:8 最近下载:2025-02-07 07:59:08
    ... 500x500.jpg": 84908, "12. Bird of Prey - Walkabout.mp3": 12545024 ... Hellamental.mp3": 11261952, "05. Bird of Prey - Metakinetic.mp3": ... Tropics.mp3": 15595008, "07. Bird of Prey - Xenomorphic.mp3": ... Porn.mp3": 15976448, "14. Bird of Prey - Paradise (Bonus ...
创建时间: 2018-12-19 04:38:30 大小:193.96 MB 文件数量:16 热度:13 最近下载:2025-08-04 11:29:04
    {"PSArips.com.txt": 33, "Bird.Box.2018.1080p.10bit.WEBRip.6CH.sample.mkv": 12244240, "Bird.Box.2018.1080p.10bit.WEBRip.6CH.x265.HEVC-PSA.mkv": 2088619120}
创建时间: 2018-12-19 04:43:52 大小:1.96 GB 文件数量:3 热度:9 最近下载:2022-04-23 06:04:03
    ... "FLY BIRD MX330": {"FLY BIRD MX330.pdf": 5515968}, "FLY BIRD S1160": {"FLY BIRD S1160 ... .pdf": 3842759}, "FLY BIRD S1186": {"FLY BIRD S1186 ... "FLY BIRD SX200": {"FLY BIRD SX200.pdf": 9938871}, "FLY BIRD SX210": {"FLY BIRD SX210 ...
创建时间: 2018-12-19 04:50:17 大小:422.67 MB 文件数量:217 热度:8 最近下载:2025-10-10 17:24:02
    {"Readme.nfo": 1100, "www.limetorrents.com.jpg": 77228, "Black Bird System Info Pro 1.0.2.2 + Patch.exe": 4945890}
创建时间: 2018-12-19 04:53:09 大小:4.79 MB 文件数量:3 热度:7 最近下载:2022-04-23 06:27:36
    {"RARBG.txt": 31, "Lady.Bird.2017.1080p.BluRay.REMUX.AVC.DTS-HD.MA.5.1-FGT.mkv": 16878768037}
创建时间: 2018-12-19 05:04:58 大小:15.72 GB 文件数量:2 热度:19 最近下载:2025-03-24 17:48:03
    {"unarc.exe": 214016, "SIMPLEX.bin": 254604162, "SiMPLEX.exe": 143872, "SiMPLEX.ini": 209, "bassmod.dll": 34308, "simplex.nfo": 4447, "README!!!.txt": 240, "GoodOldDownloads.com.url": 237}
创建时间: 2018-12-19 05:09:34 大小:243.19 MB 文件数量:8 热度:6 最近下载:2022-04-23 06:15:03
    {"01.jpg": 485973, "02.jpg": 505484, "03.jpg": 458024, "04.jpg": 512906, "05.jpg": 426584, "06.jpg": 392050, "07.jpg": 373389, "08.jpg": 367263, "09.jpg": 355676, "10.jpg": 372667, "11.jpg": 384012, "12.jpg": 407446, "13.jpg": 410947, "14.jpg": 381212, "15 ...
创建时间: 2018-12-19 05:17:06 大小:7.64 MB 文件数量:20 热度:9 最近下载:2025-10-11 07:36:02
    {"front.jpg": 39582, "04. Comet.mp3": 8049687, "07. Night.mp3": 12794569, "08. Spike.mp3": 8327630, "02. Plague.mp3": 7159434, "03. Ravens.mp3": 9283711, "09. Missal.mp3": 10409067, "05. Cinders.mp3": 8161491, "06. Nettles.mp3": 7485442, "01. Snakeskin.mp3 ...
创建时间: 2018-12-19 06:03:30 大小:86.11 MB 文件数量:10 热度:6 最近下载:2025-10-16 10:33:02
    {"APRJ 7095.pdf": 9671641, "Sonny Rollins Plays For Bird (2014, APRJ 7095).cue": 963, "Sonny Rollins Plays For Bird (2014, APRJ 7095, side A).dsf": 2279092598, "Sonny Rollins Plays For Bird (2014, APRJ 7095, side B).dsf": 1405563256}
创建时间: 2018-12-19 06:09:45 大小:3.44 GB 文件数量:4 热度:9 最近下载:2025-10-10 21:03:02
    {"Bird Box HDRip.avi": 1510511594}
创建时间: 2018-12-19 06:11:56 大小:1.41 GB 文件数量:1 热度:5 最近下载:2022-04-09 06:15:32